Theta_e
325 323 322 321 319 317 316 315 315 314 314 314 314 314 313 313 313 312 312 312 312 313 313 313 313 312 312 311 311 311 311 311 311 312 313 313 306 317 321 327 335 331 329
323 322 321 319 317 315 315 314 314 313 313 313 312 312 311 311 311 311 310 310 310 311 311 311 310 310 309 309 309 309 309 309 309 310 310 301 300 315 322 334 334 335 332
322 320 318 316 315 314 313 313 312 312 311 311 311 310 310 309 309 309 308 308 309 309 309 309 309 308 307 307 307 307 307 308 309 306 302 298 300 315 327 332 332 334 336
320 316 313 314 312 311 311 311 311 310 310 309 309 309 309 308 307 307 307 307 308 308 308 308 307 306 306 306 306 306 306 307 304 301 300 304 313 320 327 329 330 333 333
317 310 310 311 310 310 310 310 309 309 308 308 307 308 308 307 307 306 306 306 306 307 307 306 306 305 305 304 305 305 305 306 300 304 308 311 316 321 325 323 325 328 330
311 309 308 310 310 310 309 309 308 308 307 307 307 306 306 305 305 305 305 305 306 306 306 305 304 303 302 302 303 303 303 303 298 298 304 307 312 316 320 320 320 321 324
311 311 309 309 309 310 309 308 308 307 305 305 305 305 304 304 304 304 304 304 305 304 304 303 303 301 301 301 301 301 301 300 296 296 299 304 308 310 314 315 315 316 319
312 311 310 312 309 308 307 307 307 306 304 304 303 303 301 302 302 302 303 303 303 302 302 301 301 300 299 299 299 300 299 298 294 295 301 304 307 308 310 310 311 312 314
312 311 310 310 309 307 307 306 307 304 303 302 301 300 298 300 300 300 300 301 301 300 300 299 299 298 298 297 298 298 297 295 293 294 295 299 304 306 307 308 308 310 311
311 310 310 309 306 305 306 306 306 303 300 299 299 296 293 295 296 298 298 298 299 298 298 297 297 296 295 295 296 296 295 292 293 294 295 298 302 305 306 306 306 309 310
311 311 309 307 307 305 305 305 303 300 297 296 295 293 292 294 294 293 296 296 297 296 296 295 295 294 293 292 293 294 292 292 293 294 295 299 301 303 304 304 304 306 309
312 311 306 304 305 304 300 300 299 297 296 295 295 293 292 293 294 293 292 293 293 294 293 293 293 292 290 290 290 291 291 292 293 294 296 299 300 302 303 303 303 304 307
307 306 304 303 302 301 300 300 298 297 296 295 294 293 292 293 293 292 291 291 292 292 291 291 290 290 289 289 288 290 291 292 293 295 296 298 299 301 301 301 302 302 303
306 304 304 303 302 302 301 299 298 297 296 295 294 293 292 292 293 292 291 291 291 291 291 290 290 289 288 287 288 290 290 292 293 295 295 298 298 299 300 300 303 304 303
305 304 304 303 303 301 300 299 297 296 295 295 294 293 292 292 292 291 291 291 290 291 291 290 289 289 287 287 287 288 290 291 292 293 293 297 298 299 299 299 300 301 302
304 304 303 303 302 301 299 298 297 296 295 294 293 293 292 292 291 291 291 291 290 290 290 289 289 288 287 287 287 288 290 291 291 292 292 293 294 296 297 297 297 298 300
304 303 302 302 301 300 299 299 297 296 295 294 293 293 292 292 291 291 291 290 290 289 289 289 288 288 287 287 287 287 289 290 290 290 290 291 291 292 293 297 297 299 300
303 302 302 301 299 299 299 299 298 296 295 294 293 293 292 292 291 291 290 290 289 289 288 288 288 287 286 285 286 287 288 288 289 288 289 289 289 290 291 293 295 297 299
303 302 301 300 300 299 297 298 298 295 294 293 293 293 292 292 291 291 290 290 289 289 288 288 287 286 285 285 285 286 288 287 287 287 286 287 287 288 289 291 294 294 296
302 301 300 300 299 297 296 295 295 294 294 293 293 292 292 292 291 291 290 290 289 288 287 287 287 286 284 284 285 285 287 286 286 286 286 285 285 286 287 288 291 293 293
301 299 299 298 297 297 296 295 294 293 293 292 292 292 292 291 291 291 290 289 288 287 287 287 286 285 284 284 284 284 285 286 286 285 285 285 285 285 285 288 291 293 293
300 299 298 298 296 296 295 294 293 292 292 291 290 291 292 291 290 289 289 288 287 287 287 286 285 284 284 285 284 283 283 284 284 285 285 284 284 284 285 287 289 292 292
299 298 298 296 295 294 293 293 292 292 291 291 290 290 290 289 288 288 287 286 286 287 286 285 284 284 284 285 284 284 280 283 283 285 285 284 284 283 284 285 287 290 290
298 297 296 295 294 293 292 292 292 291 290 289 289 289 289 288 287 286 286 286 286 286 285 284 284 284 284 284 284 284 284 284 282 283 284 284 283 283 284 285 286 286 288
297 296 296 295 293 292 291 291 291 290 290 289 288 288 288 287 286 285 285 285 285 285 284 283 283 283 283 283 284 284 284 284 283 283 283 283 283 283 283 284 285 286 287
296 296 295 294 292 291 291 291 290 289 289 288 287 287 286 286 285 285 285 285 285 284 283 283 282 282 282 282 282 283 284 284 283 283 283 283 282 283 283 284 285 285 285
Wind_Speed
14 13 9 9 10 12 13 14 16 16 16 16 17 17 18 18 18 19 20 19 19 19 19 19 19 19 19 19 20 19 19 18 19 20 19 20 16 13 14 12 13 14 11
20 14 11 11 11 12 13 14 16 16 15 16 15 16 16 16 17 17 18 18 18 18 18 18 19 20 20 20 20 20 20 21 20 20 20 17 13 12 12 15 12 10 10
19 14 12 12 12 13 14 15 16 16 16 15 14 14 15 14 15 15 17 17 17 17 17 17 19 19 20 20 20 20 21 22 22 21 20 15 12 9 11 13 11 9 8
18 13 11 12 13 14 14 15 15 15 15 14 13 12 13 14 14 15 16 16 16 16 16 17 18 18 19 19 19 19 20 21 22 24 18 14 12 9 12 10 10 9 8
16 12 12 13 14 15 15 15 15 14 15 14 13 12 13 14 15 14 16 16 16 17 17 18 18 19 19 19 19 19 19 19 22 21 17 16 14 11 12 16 13 8 8
16 14 13 13 14 15 14 14 14 15 16 14 13 13 13 14 14 15 16 16 17 17 17 18 18 19 19 19 18 18 18 19 21 18 14 15 15 11 15 16 17 17 13
18 14 13 13 13 14 14 13 13 14 16 15 14 14 14 15 15 15 16 17 17 17 18 18 18 19 19 18 17 17 17 18 21 17 12 12 15 13 14 16 18 18 17
17 14 13 12 12 13 13 12 11 12 16 16 15 15 16 16 16 15 15 16 17 17 18 19 19 19 19 19 18 17 17 17 20 16 11 11 13 13 13 16 18 18 18
15 13 13 11 10 11 12 10 10 12 15 16 15 15 15 14 15 15 15 17 17 17 18 18 20 20 19 18 18 17 17 18 18 17 14 9 14 12 13 15 18 18 16
15 13 11 9 9 10 10 8 10 11 13 15 15 15 14 12 14 15 16 18 16 17 17 18 19 19 20 17 17 18 18 18 16 16 13 9 13 12 13 15 17 17 16
15 13 10 8 9 10 9 10 9 9 11 15 18 18 15 14 14 14 17 18 17 18 17 19 19 19 20 16 17 18 18 18 17 17 13 12 12 12 12 13 16 16 14
17 15 11 9 14 12 10 5 4 8 12 15 18 20 16 13 14 15 19 18 18 18 18 20 20 21 23 20 21 18 18 19 17 16 10 13 13 12 11 12 13 14 13
22 18 14 15 15 14 10 5 5 7 11 14 18 20 16 13 14 17 21 20 20 19 21 22 23 25 25 24 23 20 19 20 17 12 11 12 11 10 9 10 11 14 12
22 20 17 15 14 11 7 5 5 6 8 13 16 19 18 14 16 18 19 20 19 21 21 24 25 27 27 26 23 20 20 18 15 13 11 12 11 10 7 10 12 16 13
24 19 16 14 11 10 8 7 4 5 6 10 13 17 17 14 15 16 17 18 19 19 20 23 26 27 30 29 24 20 20 18 17 14 10 13 12 12 10 12 14 15 16
24 20 17 14 11 9 9 7 4 3 4 6 10 14 16 15 15 16 16 19 20 19 20 22 26 28 30 32 25 19 18 16 16 17 15 12 12 14 14 14 16 17 16
26 22 18 14 10 10 8 5 4 3 2 4 8 11 15 17 15 16 15 18 19 19 21 23 27 29 32 32 24 18 14 14 16 17 17 15 14 13 13 15 15 16 15
27 22 18 15 13 10 5 4 3 4 3 3 6 10 14 16 16 15 15 16 17 19 21 22 27 30 33 32 26 17 10 13 13 17 17 18 17 16 14 15 16 15 18
26 22 18 15 11 8 9 7 5 4 4 3 6 9 12 13 11 12 13 14 16 18 20 20 23 27 30 31 27 16 4 16 16 15 20 20 20 18 17 14 11 10 17
25 20 17 13 13 12 9 9 8 5 5 3 6 7 8 8 7 9 10 11 13 17 18 18 22 24 23 27 25 18 5 1 14 16 18 22 23 20 18 16 14 12 15
25 22 17 16 13 8 6 6 8 11 7 8 6 4 4 7 5 8 10 11 14 16 14 18 22 25 24 24 19 19 7 8 4 12 20 22 23 22 19 17 14 12 14
25 21 17 14 10 8 6 8 8 11 11 10 12 11 9 7 8 11 12 13 15 14 11 17 21 20 14 19 11 6 4 6 7 11 19 22 21 23 20 17 15 13 13
25 21 18 15 12 10 8 9 11 10 9 10 14 12 10 9 11 13 15 15 15 13 14 17 19 18 15 17 15 4 2 2 13 9 11 24 22 23 20 18 16 13 14
24 20 18 15 13 12 9 11 11 12 11 10 11 10 8 10 13 15 16 17 14 12 15 18 18 17 14 14 14 4 7 8 2 4 12 11 27 21 21 16 15 16 13
25 21 18 15 14 12 12 12 12 12 10 8 8 8 9 10 13 13 15 17 13 14 18 18 18 16 14 12 12 11 9 9 9 4 6 15 20 22 23 14 15 14 12
24 21 17 15 14 12 12 12 11 9 8 8 8 9 10 11 12 12 13 14 13 18 18 16 19 19 14 13 14 11 10 5 7 6 4 10 12 17 27 15 13 14 14
Wind_Direction
145 140 125 105 92 82 70 62 56 51 48 45 41 36 35 32 29 26 23 20 17 14 11 8 6 3 1 358 356 354 353 351 346 341 336 328 318 310 322 318 317 294 274
147 144 123 114 96 81 75 66 59 53 46 45 42 40 36 34 31 27 25 21 17 13 10 8 5 2 1 359 357 354 353 352 350 346 336 331 320 314 325 334 311 319 271
146 144 129 105 91 82 72 65 59 53 47 43 40 39 37 33 30 28 25 23 18 15 12 11 6 4 2 1 360 358 356 355 353 349 339 337 335 333 350 333 329 317 271
145 141 119 103 90 79 73 68 64 56 48 44 40 38 34 32 28 26 23 22 19 16 15 11 9 7 6 4 3 0 359 360 358 354 357 359 4 8 337 347 0 352 299
139 129 110 104 88 79 77 73 69 62 52 46 40 36 34 30 27 24 19 19 17 16 16 13 11 10 8 7 5 3 1 1 360 9 22 19 16 21 12 17 14 7 7
136 123 107 100 89 82 81 83 75 64 49 45 42 37 33 28 28 25 20 19 17 15 14 13 12 10 8 7 6 3 1 358 356 4 12 23 24 353 359 4 2 4 7
140 127 109 103 96 89 86 86 77 64 47 45 41 36 31 28 29 27 22 19 17 14 13 13 11 8 7 5 3 2 0 359 358 3 6 18 14 355 345 355 354 354 358
144 133 118 113 101 95 91 89 81 63 48 45 41 38 30 29 30 28 24 21 17 14 13 11 7 6 4 3 5 1 359 359 355 4 8 16 5 349 345 341 340 345 351
145 134 125 119 113 99 100 80 82 65 50 47 44 40 33 36 34 31 27 22 16 15 12 11 6 5 3 2 1 5 1 356 356 1 359 354 352 340 337 338 336 334 334
144 137 136 132 120 110 114 75 89 69 53 48 46 37 34 43 37 36 28 18 21 16 14 10 6 5 2 3 4 357 357 357 357 356 355 354 335 331 332 335 337 333 330
147 147 144 138 144 123 113 117 99 62 43 36 35 31 36 41 38 38 28 23 22 17 14 10 6 5 2 3 359 353 352 0 3 0 4 352 331 327 324 331 335 332 322
157 160 146 136 147 147 136 121 62 48 42 37 33 31 37 39 41 34 27 27 24 17 17 9 8 6 6 3 357 356 359 359 2 4 7 351 339 318 325 328 332 334 325
149 148 143 133 139 139 131 98 54 51 40 35 32 32 36 40 36 33 29 26 23 19 15 11 10 8 7 4 2 360 1 2 0 6 2 351 341 332 325 331 328 337 325
150 145 143 143 142 142 134 106 64 44 41 37 32 32 33 39 36 33 29 23 17 14 12 9 8 7 7 7 7 5 7 7 5 7 6 359 344 332 337 335 331 337 325
152 148 148 153 154 142 131 103 79 63 51 43 38 35 35 37 37 29 30 19 14 13 11 5 6 7 7 8 9 12 17 25 32 26 19 31 19 6 347 335 333 329 331
156 154 154 156 149 133 123 113 96 102 68 51 46 43 35 33 32 25 25 17 13 15 8 4 6 5 6 7 7 13 20 30 44 51 52 51 41 27 6 348 331 324 324
160 156 154 144 132 127 120 123 127 146 111 63 52 45 33 28 31 26 20 16 12 6 1 360 4 4 3 4 6 12 26 38 47 47 45 39 35 26 16 10 356 340 338
157 154 146 141 127 128 126 164 161 169 166 84 53 35 25 26 26 21 19 18 11 4 3 5 5 4 2 3 2 7 34 39 44 40 36 33 28 22 18 7 1 349 344
157 151 145 143 137 126 114 121 155 160 169 100 49 24 22 20 22 15 15 13 9 5 6 8 8 8 3 0 359 358 43 47 36 31 27 19 16 13 14 9 1 351 343
152 146 141 138 134 126 116 108 106 122 148 82 37 22 19 11 17 15 14 10 10 4 8 11 9 9 9 1 356 357 16 324 28 26 14 12 9 5 7 5 358 349 337
147 142 138 129 126 132 120 107 90 104 109 84 44 2 345 9 33 20 12 14 9 6 12 13 9 6 8 7 359 352 345 305 278 7 7 2 3 2 4 3 1 3 349
147 139 131 120 120 107 94 105 118 101 97 66 55 51 54 67 40 29 16 12 1 4 14 11 8 5 1 10 4 335 347 339 332 341 348 356 354 356 1 5 9 15 9
145 139 127 116 105 92 94 116 118 105 84 64 49 58 62 44 36 26 15 7 5 18 16 7 3 4 358 356 357 12 349 331 321 307 336 345 345 350 355 360 12 20 20
145 137 125 112 100 92 92 93 87 78 79 64 56 60 50 34 25 16 10 8 13 17 6 1 358 358 357 348 353 273 299 273 297 313 318 326 339 345 349 352 1 3 9
145 135 122 112 102 97 85 76 80 84 76 60 50 40 27 23 22 15 11 7 8 5 359 355 358 356 348 343 338 326 307 304 284 276 306 323 333 335 341 342 353 352 0
140 132 125 117 105 98 86 78 72 71 64 54 41 30 19 16 14 9 7 5 4 358 354 359 357 346 336 332 326 323 310 292 288 296 289 314 314 323 332 333 340 346 347